This is the latest recevied weather packets stored in our database for station/object W4SKW. If no packets are shown the sender has not sent any weather packets the latest 10 day(s).
| Time | Temp. | Humidity | Pressure | Rain* | Wind** | Luminosity | Snow |
|---|---|---|---|---|---|---|---|
| 1777312697 | 23.33° C | 62% | 1021 hPa | 0 mm | - | 794 W/m² | - |
| 1777312394 | 23.33° C | 62% | 1021 hPa | 0 mm | - | 794 W/m² | - |
| 1777312092 | 22.78° C | 62% | 1020.6 hPa | 0 mm | - | 455 W/m² | - |
| 1777311789 | 22.78° C | 62% | 1020.8 hPa | 0 mm | - | 741 W/m² | - |
| 1777311486 | 22.78° C | 60% | 1021 hPa | 0 mm | - | 784 W/m² | - |
| 1777311183 | 22.22° C | 64% | 1020.8 hPa | 0 mm | - | 774 W/m² | - |
| 1777310881 | 22.22° C | 66% | 1020.9 hPa | 0 mm | - | 774 W/m² | - |
| 1777310578 | 22.78° C | 60% | 1020.8 hPa | 0 mm | - | 771 W/m² | - |
| 1777310276 | 22.22° C | 65% | 1020.9 hPa | 0 mm | - | 767 W/m² | - |
| 1777309972 | 22.78° C | 64% | 1021 hPa | 0 mm | - | 743 W/m² | - |
| 1777309670 | 22.78° C | 63% | 1021.2 hPa | 0 mm | - | 764 W/m² | - |
| 1777309367 | 22.78° C | 64% | 1021.4 hPa | 0 mm | - | 748 W/m² | - |
| 1777309066 | 22.22° C | 67% | 1021.4 hPa | 0 mm | - | 728 W/m² | - |
| 1777308763 | 21.67° C | 66% | 1021.4 hPa | 0 mm | - | 679 W/m² | - |
| 1777308458 | 21.11° C | 69% | 1021.5 hPa | 0 mm | - | 660 W/m² | - |
| 1777308154 | 21.67° C | 69% | 1021.5 hPa | 0 mm | - | 644 W/m² | - |
| 1777307850 | 21.67° C | 65% | 1021.6 hPa | 0 mm | - | 711 W/m² | - |
| 1777307548 | 21.11° C | 67% | 1021.9 hPa | 0 mm | - | 621 W/m² | - |
| 1777307238 | 20.56° C | 66% | 1021.9 hPa | 0 mm | - | 582 W/m² | - |
| 1777306936 | 21.11° C | 66% | 1021.8 hPa | 0 mm | - | 470 W/m² | - |
| 1777306633 | 21.11° C | 69% | 1021.6 hPa | 0 mm | - | 728 W/m² | - |
| 1777306329 | 21.11° C | 70% | 1021.8 hPa | 0 mm | - | 637 W/m² | - |
| 1777306023 | 20.56° C | 68% | 1021.7 hPa | 0 mm | - | 592 W/m² | - |
| 1777305721 | 21.11° C | 68% | 1021.9 hPa | 0 mm | - | 637 W/m² | - |
| 1777305416 | 21.11° C | 69% | 1021.8 hPa | 0 mm | - | 664 W/m² | - |
* Rain latest hour (hover to see other rain measurements)
** Current wind speed in m/s (hover to see current wind gust speed)